Temperature
29 29 29 29 29 29 29 29 29 29 30 29 28 27 28 27 27 26 25 24 23 23 22 21 20 20 19 19 18 17 17 17 17 17 16 16 16 16 16 16 15 15 15 15
29 29 30 30 29 29 29 29 29 30 30 29 28 28 28 27 27 26 25 24 23 23 22 21 20 19 19 18 17 17 17 17 16 16 16 16 16 16 15 15 15 15 15 15
28 29 30 30 29 29 29 28 28 28 29 29 28 27 27 27 27 26 25 24 23 22 21 20 20 19 18 18 17 17 16 16 16 16 16 15 15 15 15 15 15 14 14 14
29 30 30 29 29 29 28 29 29 28 27 27 27 26 26 26 26 26 25 24 23 22 21 20 19 19 18 17 17 17 16 16 16 15 15 15 15 15 15 14 14 14 14 14
29 29 29 29 29 29 28 29 28 28 27 27 27 25 25 26 25 25 24 23 23 22 21 20 19 19 18 17 17 16 16 15 15 15 15 15 14 14 14 14 14 14 14 14
29 30 30 29 29 29 28 28 27 27 26 25 25 25 24 25 25 25 24 23 22 21 21 20 19 18 18 17 17 16 16 15 15 15 15 14 14 14 14 14 14 14 14 13
28 29 29 29 28 28 27 25 24 24 24 24 25 24 23 24 25 25 24 23 22 21 21 20 19 18 17 17 17 16 16 15 15 15 14 14 14 14 14 14 13 13 13 13
26 26 28 28 27 26 26 25 23 22 22 23 24 23 23 25 25 25 24 23 22 21 21 20 19 18 17 17 16 16 16 15 15 15 14 14 14 14 13 13 13 13 13 13
24 25 27 28 28 27 26 25 26 24 23 23 23 23 23 24 24 24 23 22 22 21 20 20 19 18 17 17 16 15 15 15 14 14 14 14 14 13 13 13 13 13 12 12
25 24 26 27 28 28 27 26 25 24 23 22 22 23 22 22 23 23 23 22 21 20 20 19 18 17 17 16 16 15 15 14 14 14 14 13 13 13 13 13 12 12 12 12
25 23 24 26 26 26 26 25 25 25 24 22 21 21 22 22 22 22 22 21 20 19 19 18 18 17 17 16 16 15 14 14 14 14 13 13 13 13 13 12 12 12 12 12
24 23 22 24 26 27 26 26 24 23 22 22 22 21 23 23 22 22 22 21 20 19 18 18 18 17 16 16 15 15 14 14 14 13 13 13 13 12 12 12 12 12 12 12
22 21 21 23 25 26 25 25 24 23 23 22 21 21 23 22 22 21 21 20 19 18 18 18 17 17 16 16 15 14 14 14 13 13 13 13 12 12 12 12 12 11 11 11
22 21 21 21 22 23 23 24 24 23 22 22 22 21 21 21 21 21 20 19 18 18 17 17 16 16 16 15 15 14 14 13 13 13 13 13 12 12 12 12 11 11 11 11
22 21 22 22 23 23 23 24 23 23 22 22 21 21 20 20 20 20 19 19 18 17 17 16 16 15 15 15 14 14 13 13 13 13 13 13 12 12 12 12 11 11 11 11
22 21 21 21 23 23 23 23 23 23 22 22 21 20 20 20 19 19 18 18 17 17 16 16 15 15 14 14 14 13 13 13 13 13 13 13 12 12 12 12 12 11 11 11
21 20 20 21 23 23 22 22 22 22 21 21 20 19 20 20 19 18 18 17 17 16 16 15 14 14 14 14 13 13 13 13 13 13 13 13 12 12 12 12 12 11 11 11
20 20 20 20 21 20 21 22 22 21 20 20 20 20 19 19 18 17 17 16 16 16 15 14 14 14 13 13 13 13 13 13 13 13 13 13 12 12 12 12 11 11 11 11
22 20 20 20 20 20 21 21 21 20 19 19 19 19 19 18 17 17 16 16 15 15 14 14 13 13 13 13 13 13 13 13 12 13 12 12 12 12 12 12 11 11 11 11
22 21 20 19 19 19 19 20 21 21 19 19 18 18 18 18 17 16 15 15 15 14 14 13 13 13 13 13 12 12 12 12 12 12 12 12 12 12 12 12 11 11 11 11
21 20 20 20 19 19 20 20 20 19 17 18 18 17 17 17 16 15 15 15 14 14 13 13 13 13 12 12 12 12 12 12 12 12 12 12 12 12 12 12 11 11 11 11
20 20 20 19 19 18 20 19 18 17 17 17 17 17 16 16 15 15 15 14 14 13 13 13 13 12 12 12 12 12 12 12 12 12 12 12 12 12 12 12 12 12 11 11
20 20 19 19 19 19 18 18 17 17 17 17 17 16 16 15 15 15 14 14 14 13 13 13 12 12 12 12 12 12 12 12 12 12 12 12 12 12 12 12 12 12 11 11
20 20 19 19 19 19 18 18 17 17 17 17 16 16 16 15 15 15 14 14 14 13 13 13 12 12 12 12 12 12 12 12 12 12 12 12 12 12 12 12 12 12 12 12
19 19 18 18 18 18 18 17 17 17 16 16 16 16 15 15 15 15 14 14 13 13 13 13 12 12 12 12 12 12 12 12 12 12 12 12 12 12 12 12 12 12 12 12
18 18 17 17 17 17 17 16 16 16 16 16 16 15 15 15 15 15 14 14 14 13 13 12 12 12 12 12 12 12 12 12 12 12 12 12 12 12 12 12 12 12 12 12
Wind_Speed
9 9 7 5 6 9 12 12 10 9 5 7 6 7 5 4 3 3 3 4 3 3 3 5 6 6 6 6 5 3 2 2 1 1 1 1 1 1 1 1 2 0 1 1
8 8 6 5 8 11 12 11 10 8 6 7 8 9 7 6 5 5 4 3 3 3 4 5 6 5 6 6 5 4 3 2 2 1 1 1 1 1 1 1 1 1 1 1
6 7 7 8 9 9 9 9 10 9 10 10 11 9 5 5 4 5 4 3 3 3 5 6 6 5 4 5 5 4 3 2 1 0 1 0 0 0 1 1 1 1 1 1
6 6 8 9 9 9 9 9 11 11 11 10 10 9 5 3 2 4 4 4 2 3 4 4 6 6 4 4 4 4 3 2 1 1 1 1 1 1 0 0 0 0 1 1
7 8 9 9 8 9 10 12 13 13 13 13 10 8 6 3 2 3 3 3 3 3 3 4 4 5 4 4 4 4 4 2 2 1 1 1 1 1 1 0 0 1 1 1
9 7 6 7 7 7 9 12 14 12 9 11 8 8 5 3 2 2 3 4 3 2 4 4 4 4 4 3 3 4 4 4 3 2 2 1 1 1 1 1 1 1 1 1
8 5 4 5 8 7 9 9 8 7 6 7 7 5 3 3 2 2 4 4 4 3 4 4 3 4 4 3 1 2 3 3 2 2 1 1 1 2 2 1 2 2 2 1
9 7 6 7 7 8 8 7 7 8 9 10 8 3 2 3 3 4 5 4 5 4 4 3 3 3 3 3 1 1 1 1 1 1 1 1 0 1 1 1 2 2 2 2
10 10 11 10 9 7 7 8 9 8 10 10 6 3 1 4 5 6 6 4 3 4 3 3 3 3 3 3 2 1 1 1 0 1 1 2 1 1 1 1 2 2 2 2
9 12 12 11 10 7 7 8 6 6 6 7 7 5 4 5 6 5 4 3 4 4 4 3 3 3 2 1 2 3 1 1 1 2 2 1 0 0 1 1 2 2 3 3
10 8 11 10 8 9 8 7 7 7 7 7 8 5 3 5 4 4 3 4 4 4 4 2 2 2 2 2 2 2 1 1 1 1 1 0 1 0 1 1 1 2 2 3
9 7 10 13 10 7 7 7 7 7 8 9 8 5 2 4 5 5 6 6 5 3 2 2 2 2 1 1 1 0 1 1 1 1 1 1 1 0 1 1 2 2 2 2
8 6 8 7 5 6 9 10 10 9 9 9 8 4 3 5 6 6 6 6 5 3 3 3 2 2 2 2 2 2 1 1 1 1 1 1 1 1 1 1 2 2 2 2
5 7 8 10 11 13 14 13 12 10 8 9 8 8 7 7 7 6 5 5 4 4 4 3 3 2 2 3 2 3 2 1 2 1 1 1 1 1 1 1 2 2 2 2
5 8 10 12 13 14 15 12 11 9 9 8 9 8 8 8 8 7 6 5 5 5 5 5 4 2 2 2 2 3 3 2 1 0 0 1 1 1 1 1 2 2 2 3
5 7 11 13 13 12 12 11 8 7 8 8 8 8 7 8 8 7 6 6 5 5 6 6 5 4 1 2 2 3 3 2 1 1 1 1 1 1 1 1 1 2 2 3
7 8 11 12 12 10 6 8 9 9 9 8 8 7 8 8 9 8 7 6 6 6 6 6 6 4 2 1 1 2 3 2 2 2 2 2 1 1 0 1 1 2 3 2
6 8 7 10 11 7 3 8 9 8 8 10 8 8 9 8 8 6 7 6 6 6 6 6 5 4 3 1 1 1 2 1 2 3 2 1 0 0 0 1 2 2 2 2
4 5 6 6 9 7 4 8 10 9 6 9 9 9 9 8 7 5 8 7 6 5 4 3 4 3 3 2 1 1 2 1 2 3 1 1 0 0 1 1 2 2 2 2
2 4 6 8 10 8 6 9 10 7 3 11 12 11 10 9 7 6 7 7 6 6 4 3 3 4 3 2 2 2 1 2 3 3 2 1 0 1 1 1 2 2 2 2
6 6 7 9 8 4 7 11 10 6 7 11 11 9 9 8 7 5 5 5 5 4 3 3 3 3 3 2 2 1 2 2 3 3 2 1 0 1 1 1 1 3 3 3
7 6 7 7 7 4 11 10 8 6 8 9 9 8 8 6 5 5 5 5 4 3 3 3 3 3 3 2 1 2 2 2 2 2 1 0 0 1 1 0 2 3 3 3
4 5 6 5 5 6 7 6 6 6 8 8 8 7 6 6 5 5 5 4 3 3 3 3 3 3 2 2 2 2 2 2 2 2 1 1 1 0 1 2 2 2 2 2
7 6 7 7 6 8 8 7 7 7 8 9 7 6 6 6 6 5 4 3 3 3 3 3 3 4 3 2 2 2 2 2 2 1 1 1 1 1 1 2 2 2 2 2
11 9 9 9 8 9 9 10 10 9 9 8 7 6 6 7 6 4 2 2 3 3 2 2 3 3 3 2 3 2 2 2 1 1 2 3 3 2 1 2 2 2 2 1
8 7 7 8 9 8 10 10 10 9 8 8 7 7 7 7 6 5 2 2 2 2 2 2 3 4 4 3 3 2 2 2 2 2 3 3 3 2 2 2 1 1 3 3
Wind_Direction
244 249 262 285 289 286 283 290 285 285 298 295 285 277 261 230 206 184 173 161 161 157 153 134 130 138 136 131 134 143 158 140 145 185 201 227 206 174 151 136 112 114 281 295
263 264 280 281 282 280 283 292 290 295 297 288 274 261 242 221 200 187 184 166 162 163 138 133 131 134 139 141 144 151 153 148 183 182 191 214 208 219 132 62 81 55 342 298
286 304 304 290 283 291 294 294 302 311 310 294 281 266 239 219 188 156 147 139 155 171 154 152 144 137 145 148 153 162 161 157 179 156 161 121 187 249 82 66 87 35 348 346
278 294 298 291 294 304 303 320 311 300 296 290 290 287 268 231 194 144 135 128 144 150 148 141 143 145 144 151 155 147 137 135 183 167 194 213 208 259 274 204 132 283 263 262
294 293 290 292 305 311 316 320 307 296 289 284 281 282 275 255 220 144 127 115 105 116 120 111 125 137 137 151 159 145 133 146 167 176 208 254 284 308 356 329 166 251 247 243
298 299 303 318 320 322 325 317 310 299 286 277 287 288 296 325 306 146 146 123 106 115 117 105 113 122 125 133 145 139 149 157 173 184 186 234 270 281 288 291 267 260 258 242
308 300 303 330 325 334 333 324 318 310 293 294 318 312 318 31 3 111 141 124 126 112 105 116 121 127 116 111 113 137 140 159 175 179 185 213 256 270 266 276 273 284 292 285
324 314 328 330 321 315 310 302 304 312 310 308 306 311 341 27 43 76 88 95 102 91 80 89 95 112 124 111 84 106 127 142 168 161 185 177 205 255 291 324 308 302 304 311
337 322 323 316 313 304 301 298 308 300 290 296 305 310 334 52 46 57 68 67 80 83 64 55 79 89 95 110 107 75 72 84 290 246 241 199 200 284 298 304 300 322 331 307
327 315 312 315 310 299 307 306 309 298 303 306 309 332 344 9 13 23 36 44 46 45 53 50 57 50 63 84 143 131 130 224 233 223 235 248 132 295 302 311 333 331 321 320
332 314 310 311 307 316 320 322 327 318 313 307 303 317 6 355 2 2 21 43 45 33 17 23 47 46 39 30 73 138 179 220 232 230 198 215 233 235 315 309 314 321 322 316
349 323 305 298 298 302 311 327 333 322 316 304 303 302 333 7 5 13 30 30 31 32 4 359 22 26 27 5 29 261 239 249 238 187 182 191 237 283 298 312 314 313 306 307
342 318 308 315 332 341 332 334 330 321 306 297 300 301 24 10 9 20 27 24 14 359 10 11 15 356 347 352 1 344 304 301 300 177 174 177 233 276 294 300 304 304 304 309
308 292 298 301 307 313 313 317 322 321 310 309 312 319 345 0 0 11 18 19 8 2 11 4 357 2 356 347 354 339 323 304 266 218 154 202 238 267 290 296 306 298 307 310
322 296 303 303 301 299 300 307 313 312 311 306 313 331 353 359 2 5 11 9 5 1 1 356 352 0 352 341 348 349 332 328 311 285 233 236 243 257 279 298 315 317 317 317
315 302 304 295 291 295 304 319 325 328 338 336 342 349 4 0 4 6 4 0 353 352 352 353 351 345 339 324 333 332 315 312 289 256 246 228 223 234 260 283 332 334 330 335
309 310 306 300 308 304 311 354 358 358 359 353 354 354 359 0 1 358 354 357 353 349 348 351 343 340 334 323 333 315 310 325 309 278 256 231 225 265 277 321 356 352 345 345
278 305 300 299 309 299 351 8 1 355 6 12 11 6 2 2 3 3 12 7 358 347 348 352 345 347 346 328 298 312 313 313 301 290 264 258 112 270 323 2 1 357 339 329
232 275 293 299 305 301 323 359 352 338 356 23 8 358 347 348 345 359 9 358 352 353 357 358 353 348 346 350 3 316 298 305 293 297 300 1 330 103 10 14 360 349 334 334
266 253 270 286 294 302 349 354 338 319 353 11 359 352 347 345 339 344 352 348 3 18 23 14 354 355 358 9 8 318 321 321 306 311 308 317 33 49 29 17 346 325 313 307
304 283 276 287 288 298 2 359 346 341 347 343 345 349 348 350 346 346 350 359 21 26 16 357 349 357 2 5 351 324 323 314 305 307 305 10 24 234 166 17 313 302 303 308
308 303 299 299 294 313 2 1 1 341 329 334 341 348 351 354 360 355 352 354 0 8 355 339 345 353 1 1 328 297 305 307 309 313 328 28 308 299 351 273 279 287 294 304
303 318 311 309 312 334 350 1 347 332 326 331 334 339 337 336 337 337 338 342 344 347 342 327 334 340 347 343 312 297 293 295 296 315 351 331 306 273 295 285 286 292 290 304
311 330 309 303 310 326 334 338 338 331 329 327 332 332 327 326 327 332 332 338 341 337 328 325 331 325 321 309 294 295 278 270 275 314 303 270 253 256 268 278 291 302 322 342
301 303 297 292 305 312 316 330 330 330 327 329 334 330 324 320 319 319 315 319 320 317 314 318 311 308 304 292 283 277 265 248 265 289 266 264 262 248 260 251 273 290 322 309
285 293 293 296 314 312 311 313 314 318 318 322 324 322 317 313 310 305 305 303 298 295 287 298 293 296 293 286 270 259 254 239 240 262 264 267 260 244 249 250 284 248 230 243
Height
1480 1481 1480 1477 1475 1475 1474 1473 1473 1468 1462 1467 1470 1472 1471 1471 1473 1476 1479 1482 1484 1486 1488 1489 1490 1492 1493 1495 1496 1498 1499 1500 1500 1500 1501 1501 1502 1502 1502 1503 1502 1502 1502 1501
1479 1478 1473 1472 1472 1472 1471 1474 1472 1466 1461 1466 1470 1470 1467 1468 1470 1474 1478 1481 1483 1485 1486 1489 1489 1491 1492 1493 1494 1496 1497 1498 1498 1498 1499 1500 1500 1500 1501 1501 1501 1500 1500 1499
1480 1476 1471 1471 1471 1473 1473 1474 1472 1472 1466 1464 1466 1471 1468 1466 1468 1472 1476 1479 1482 1484 1485 1487 1488 1490 1492 1492 1493 1495 1495 1496 1497 1497 1498 1498 1499 1499 1499 1499 1499 1498 1497 1497
1477 1473 1472 1472 1472 1473 1476 1469 1469 1469 1474 1475 1472 1484 1473 1469 1469 1472 1475 1478 1481 1483 1484 1486 1488 1489 1491 1492 1492 1493 1493 1494 1495 1496 1496 1497 1497 1497 1497 1497 1496 1496 1495 1495
1477 1473 1473 1474 1473 1472 1474 1469 1470 1470 1473 1476 1473 1482 1478 1468 1472 1472 1476 1479 1480 1483 1484 1485 1487 1489 1490 1490 1491 1492 1492 1494 1494 1495 1495 1495 1496 1496 1496 1495 1494 1494 1493 1493
1473 1471 1471 1473 1471 1471 1472 1473 1472 1471 1474 1488 1479 1484 1484 1474 1473 1472 1475 1478 1481 1483 1484 1485 1487 1488 1488 1489 1490 1491 1492 1493 1493 1493 1493 1494 1494 1494 1494 1493 1492 1492 1491 1491
1479 1474 1471 1473 1476 1475 1477 1486 1496 1497 1495 1491 1477 1482 1485 1473 1471 1471 1474 1478 1481 1483 1484 1485 1487 1488 1488 1489 1490 1491 1491 1491 1492 1492 1492 1492 1492 1492 1492 1491 1491 1490 1489 1489
1492 1489 1476 1475 1478 1482 1481 1487 1503 1511 1506 1494 1483 1487 1482 1472 1472 1474 1475 1478 1481 1483 1485 1486 1486 1487 1488 1488 1489 1490 1490 1490 1490 1490 1490 1490 1490 1490 1490 1489 1489 1488 1487 1487
1501 1495 1480 1477 1475 1477 1482 1484 1481 1491 1494 1496 1490 1485 1480 1476 1475 1477 1478 1480 1481 1483 1485 1486 1486 1487 1487 1488 1488 1489 1489 1488 1489 1489 1489 1489 1489 1488 1488 1488 1488 1487 1486 1486
1498 1502 1486 1478 1476 1474 1476 1477 1483 1490 1502 1506 1497 1491 1492 1483 1481 1479 1480 1481 1483 1485 1486 1487 1487 1488 1488 1488 1488 1488 1488 1488 1488 1488 1488 1488 1487 1487 1487 1486 1486 1485 1485 1485
1497 1503 1495 1485 1483 1482 1480 1481 1482 1485 1487 1503 1507 1502 1485 1483 1481 1482 1481 1482 1484 1485 1486 1487 1487 1487 1487 1486 1487 1487 1487 1487 1487 1487 1487 1486 1486 1486 1485 1485 1485 1484 1483 1482
1502 1504 1504 1490 1478 1475 1477 1481 1485 1497 1497 1494 1498 1501 1482 1482 1482 1482 1483 1484 1485 1486 1487 1488 1488 1488 1487 1487 1487 1486 1487 1486 1486 1485 1485 1485 1485 1485 1484 1484 1483 1483 1481 1480
1509 1511 1512 1499 1490 1482 1483 1482 1483 1487 1491 1494 1499 1498 1481 1483 1483 1483 1485 1486 1487 1487 1487 1487 1488 1488 1488 1487 1486 1486 1485 1485 1485 1485 1485 1484 1484 1484 1483 1483 1482 1481 1480 1479
1509 1511 1514 1517 1506 1495 1491 1486 1484 1488 1494 1495 1493 1491 1486 1486 1485 1485 1486 1487 1487 1486 1486 1487 1487 1488 1487 1486 1485 1485 1485 1484 1484 1484 1484 1484 1483 1483 1482 1482 1481 1480 1479 1477
1509 1511 1506 1502 1496 1492 1489 1486 1485 1488 1489 1492 1491 1489 1489 1488 1488 1487 1487 1487 1487 1488 1487 1487 1487 1487 1486 1486 1485 1485 1485 1484 1483 1483 1483 1483 1483 1482 1481 1481 1480 1479 1477 1476
1508 1510 1508 1504 1494 1490 1487 1485 1484 1486 1486 1488 1488 1491 1490 1490 1489 1488 1488 1488 1488 1488 1488 1487 1487 1486 1486 1485 1485 1484 1484 1483 1483 1483 1482 1482 1482 1481 1481 1480 1479 1478 1477 1475
1508 1510 1511 1507 1494 1491 1495 1491 1489 1490 1489 1491 1494 1494 1491 1491 1490 1490 1489 1488 1488 1488 1488 1487 1487 1486 1485 1485 1484 1483 1483 1483 1482 1482 1482 1481 1481 1481 1480 1480 1479 1478 1476 1475
1510 1511 1511 1507 1503 1509 1498 1489 1490 1492 1492 1492 1493 1493 1493 1493 1492 1491 1490 1490 1489 1488 1488 1487 1486 1485 1484 1483 1483 1482 1482 1482 1482 1481 1481 1481 1480 1480 1480 1479 1478 1477 1476 1475
1505 1509 1512 1511 1510 1503 1495 1493 1494 1495 1496 1496 1495 1495 1494 1493 1491 1490 1490 1490 1489 1488 1487 1487 1486 1485 1483 1483 1482 1482 1482 1481 1481 1481 1480 1480 1480 1479 1479 1478 1478 1477 1476 1475
1501 1504 1510 1510 1514 1514 1504 1496 1493 1493 1498 1498 1497 1496 1494 1492 1492 1492 1491 1490 1489 1488 1487 1486 1486 1484 1483 1482 1481 1481 1481 1481 1480 1480 1480 1480 1480 1479 1479 1478 1478 1477 1476 1475
1506 1506 1508 1508 1510 1505 1501 1497 1495 1502 1507 1501 1499 1498 1497 1495 1496 1494 1492 1491 1490 1489 1488 1487 1486 1485 1483 1482 1481 1481 1481 1480 1480 1480 1480 1480 1479 1479 1478 1478 1477 1477 1476 1475
1509 1509 1508 1508 1512 1511 1502 1501 1505 1508 1504 1502 1500 1499 1498 1496 1495 1494 1492 1491 1490 1489 1488 1487 1486 1485 1483 1482 1481 1481 1480 1480 1480 1480 1480 1479 1479 1479 1478 1478 1477 1476 1475 1474
1508 1509 1509 1509 1511 1507 1505 1505 1506 1505 1503 1501 1499 1498 1497 1496 1495 1494 1492 1491 1491 1490 1488 1487 1486 1485 1483 1483 1482 1481 1481 1480 1480 1480 1479 1479 1479 1479 1478 1478 1477 1476 1475 1474
1507 1507 1508 1508 1505 1506 1505 1505 1505 1504 1503 1501 1499 1497 1496 1495 1494 1493 1492 1491 1490 1489 1488 1487 1486 1485 1483 1483 1482 1481 1481 1481 1480 1480 1479 1479 1479 1478 1478 1478 1477 1476 1475 1474
1512 1510 1509 1508 1507 1506 1505 1505 1504 1502 1501 1499 1498 1497 1496 1495 1493 1492 1491 1490 1490 1489 1488 1487 1486 1484 1484 1483 1482 1481 1481 1481 1480 1480 1479 1479 1479 1479 1478 1477 1477 1476 1475 1473
1510 1510 1510 1509 1508 1507 1506 1504 1503 1501 1500 1498 1497 1496 1495 1494 1492 1491 1490 1490 1489 1488 1487 1486 1485 1484 1483 1482 1482 1481 1481 1480 1480 1479 1479 1479 1479 1478 1478 1477 1476 1475 1473 1472